www.pogodaiklimat.ru
ПОГОДА в Любешове
Время
(UTC), дата
00 10.11
03 10.11
06 10.11
09 10.11
12 10.11
15 10.11
18 10.11
21 10.11
00 11.11
03 11.11
06 11.11
09 11.11
12 11.11
15 11.11
18 11.11
21 11.11
00 12.11
03 12.11
06 12.11
09 12.11
12 12.11
15 12.11
18 12.11
21 12.11
00 13.11
03 13.11
06 13.11
09 13.11
12 13.11
15 13.11
18 13.11
21 13.11
00 14.11
03 14.11
06 14.11
09 14.11
12 14.11
15 14.11
18 14.11
21 14.11
00 15.11
03 15.11
06 15.11
09 15.11
12 15.11
15 15.11
18 15.11
21 15.11
00 16.11
03 16.11
06 16.11
09 16.11
12 16.11
15 16.11
18 16.11
21 16.11
Ветер
(напр.,м/с)
Видим. Явления Облачность Т
(С)
Тd
(С)
f
(%)
Тe
(С)
Тes
(С)
Комфортность P
(гПа)
Po
(гПа)
Тmin
(С)
Tmax
(С)
R
(мм)
R24
(мм)
S
(см)
ЮВ 1 4000 м дымка 4/0
[Cs]
+11.4 +10.6 95 +11 +11 тепло 1012.0 993.7
ЮВ 1 1000 м дымка 10/0
[As op]
+10.4 +9.9 97 +10 +10 тепло 1012.0 993.7
ЮВ 1 50 м туман ?/? +10.4 +10.4 100 +10 +10 тепло 1012.0 993.7 +10.0
ЮВ 2 2000 м слаб. морось {туман} 10/10 480 м
[St]
+10.8 +10.6 99 +9 +9 тепло 1012.0 993.7
штиль 0 4000 м слаб. морось {туман} 10/10 420 м
[St]
+11.1 +10.9 99 +10 +10 тепло 1011.0 992.7 0.3
штиль 0 500 м туман ?/? +11.2 +11.2 100 +10 +10 тепло 1010.0 991.8
штиль 0 1000 м слаб. морось {туман} 10/10 360 м
[St]
+11.1 +10.9 99 +10 +10 тепло 1010.0 991.8 +11.5 0.8
штиль 0 1000 м слаб. дождь {морось} 10/10 330 м
[Frnb Ns]
+10.0 +9.8 99 +9 +9 тепло 1010.0 991.7
штиль 0 4000 м дымка {дождь} 10/10 420 м
[St]
+11.0 +10.8 99 +10 +10 тепло 1010.0 991.8 1
ЮЗ 1 4000 м дымка 10/10 450 м
[St]
+8.4 +8.0 97 +7 +7 тепло 1010.0 991.6
З 3 4000 м слаб. морось 10/10 360 м
[St]
+7.3 +7.2 99 +4 +4 по сезону 1012.0 993.5 +7.3 1
З 4 4000 м в посл. час морось 10/10 450 м
[St]
+7.2 +6.3 94 +4 +4 по сезону 1015.0 996.4
З 3 4000 м слаб. морось 10/10 480 м
[St]
+7.4 +6.5 94 +4 +4 по сезону 1016.0 997.4 0.3
ЮЗ 1 4000 м дымка 10/10 540 м
[Cb cap]
+7.1 +6.4 95 +6 +6 тепло 1018.0 999.3
СЗ 1 4000 м слаб. морось 10/0
[As op]
+6.7 +6.0 95 +6 +6 тепло 1019.0 1000.3 +7.5 0.3
штиль 0 4000 м дымка 10/10 540 м
[St]
+6.1 +5.1 93 +5 +5 тепло 1019.0 1000.2
ЮВ 1 4000 м дымка 8/0
[Ci]
+3.5 +3.1 97 +2 +2 по сезону 1020.0 1001.0
ЮВ 2 4000 м дымка ясно +2.2 +1.6 96 -1 -1 по сезону 1020.0 1000.9
ЮВ 2 4000 м дымка 8/0
[Ac trans]
+2.0 +1.4 96 -1 -1 по сезону 1020.0 1000.9 +1.8 0.0
ЮВ 3 10 км 9/0
[Ci]
+6.9 +4.7 86 +4 +4 по сезону 1019.0 1000.3
ЮВ 4 10 км 9/0
[Ci]
+10.5 +6.4 76 +8 +8 тепло 1017.0 998.6
ЮВ 2 10 км 10/10 800 м
[Sc]
+9.8 +7.2 84 +8 +8 тепло 1016.0 997.6
ЮВ 3 10 км 9/0
[Ac As]
+8.4 +6.2 86 +6 +6 тепло 1016.0 997.5 +10.7
ЮВ 4 10 км 10/10 840 м
[Sc]
+9.1 +7.9 92 +6 +6 тепло 1014.0 995.5
ЮВ 4 10 км 9/0
[Cs]
+9.8 +8.6 92 +7 +7 тепло 1013.0 994.6
ЮВ 4 10 км 10/0
[Cs]
+10.0 +8.4 90 +7 +7 тепло 1012.0 993.6
ЮВ 3 10 км 8/0
[Ac lent Cs]
+10.0 +7.1 82 +8 +8 тепло 1011.0 992.7 +8.4
ЮВ 4 10 км 8/0
[Cs]
+12.0 +7.5 74 +10 +10 тепло 1011.0 992.8
ЮВ 5 10 км 5/0
[Ac lent Cs]
+15.4 +6.9 57 +14 +15 тепло 1009.0 991.0
ЮВ 3 10 км 8/0
[Ac lent Cs]
+13.6 +7.6 67 +13 +13 тепло 1010.0 991.9
ЮВ 4 10 км 9/0
[Ci]
+12.4 +7.3 71 +11 +11 тепло 1009.0 990.8 +15.5
ЮВ 4 10 км 10/0
[As op]
+11.4 +7.7 78 +9 +9 тепло 1009.0 990.8
ЮВ 4 10 км 10/10 630 м
[Sc]
+11.5 +8.9 84 +9 +9 тепло 1009.0 990.8
ЮВ 3 4000 м слаб. дождь 10/10 420 м
[Frnb Ns]
+11.4 +9.8 90 +10 +10 тепло 1011.0 992.8
ЮВ 3 4000 м слаб. дождь 10/10 330 м
[Frnb Ns]
+10.5 +9.6 94 +8 +8 тепло 1012.0 993.7 +10.5 1
ЮВ 4 4000 м слаб. ливневой дождь 10/10 540 м
[Cb cap]
+11.0 +10.2 95 +8 +8 тепло 1014.0 995.7
ЮВ 4 10 км {ливн. осадки, дождь} 10/10 540 м
[Cb cap]
+12.0 +9.6 85 +10 +10 тепло 1015.0 996.7
ЮВ 2 10 км 10/10 400 м
[St]
+10.6 +8.4 86 +9 +9 тепло 1016.0 997.6
ЮВ 3 10 км 10/10 480 м
[St]
+8.6 +6.9 89 +6 +6 тепло 1017.0 998.5 +12.5 0.0
В 2 10 км 10/10 480 м
[St]
+7.3 +5.8 90 +5 +5 тепло 1018.0 999.3
ЮВ 2 10 км 10/10 480 м
[St]
+6.5 +5.1 91 +4 +4 по сезону 1018.0 999.3
В 3 10 км 10/10 540 м
[St]
+6.5 +4.3 86 +3 +3 по сезону 1018.0 999.3
В 2 4000 м дымка 10/10 540 м
[St]
+6.1 +5.1 93 +4 +4 по сезону 1019.0 1000.2 +6.1
В 2 4000 м дымка 10 баллов +6.9 +5.8 93 +5 +5 тепло 1019.0 1000.3
В 4 10 км 10/10 420 м
[St]
+7.5 +4.5 81 +4 +4 по сезону 1018.0 999.4
В 2 10 км 10 баллов +7.3 +4.3 81 +5 +5 тепло 1019.0 1000.3
ЮВ 2 10 км 10/10 450 м
[St]
+6.9 +4.4 84 +5 +5 тепло 1019.0 1000.3 +8.0
ЮВ 2 10 км 10 баллов +6.4 +4.6 88 +4 +4 по сезону 1019.0 1000.3
ЮВ 2 10 км 10/10 540 м
[St]
+6.9 +5.2 89 +5 +5 тепло 1019.0 1000.3
ЮВ 2 4000 м дымка 10 баллов +6.9 +5.8 93 +5 +5 тепло 1019.0 1000.3
ЮВ 3 4000 м дымка 10/10 420 м
[St]
+6.9 +6.2 95 +4 +4 по сезону 1020.0 1001.3 +6.4
ЮВ 3 1000 м дымка 10 баллов +7.7 +7.1 96 +5 +5 тепло 1020.0 1001.3
ЮВ 3 4000 м дымка 10/10 480 м
[St]
+9.0 +7.8 92 +6 +6 тепло 1020.0 1001.4
ЮВ 3 10 км 10 баллов +9.4 +7.7 89 +7 +7 тепло 1020.0 1001.5
ЮВ 3 4000 м дымка 10/10 600 м
[Sc]
+9.6 +8.5 93 +7 +7 тепло 1020.0 1001.5 +9.7
ЮВ 2 4000 м дымка 10 баллов +8.6 +8.0 96 +7 +7 тепло 1021.0 1002.4
Местоположение метеостанции Любешов (Волынская область, Украина): широта 51.67 долгота 25.27 высота над уровнем моря 152 м.
В архиве по умолчанию представлена погода в Любешове за последнюю неделю. Архивные данные за месяц целиком и за предыдущие месяцы, начиная с января 2011 года, Вы можете получить, выбрав интересующий диапазон дат из раскрывающегося списка и нажав кнопку "Найти!".
*Определитесь, кто Вы:
Внимание! Время в таблицах - всемирное. Для получения местного времени необходимо прибавить поправку, которая равна 2 ч.
Смотрите также архив погоды в соседних городах и на ближайших метеорологических станциях:
Партнеры нашего сайта:      
Пояснения к столбцам:
  • Ветер - указаны скорость ветра в м/с - средняя за 10 мин, порывы в срок и между сроками (в фигурных скобках) и направление, откуда дует ветер: С - северный,
  • СВ - северо-восточный, В - восточный, ЮВ - юго-восточный, Ю - южный, ЮЗ - юго-западный, З - западный, СЗ - северо-западный.
  • Видимость - горизонтальная дальность видимости в метрах или километрах. При видимости от 1 до 10 км при отсутствии осадков обычно наблюдается дымка, при ухудшении видимости до 1 км и менее - туман. В сухую погоду видимость может ухудшаться дымом, пылью или мглою.
  • Явления - указаны атмосферные явления, наблюдавшиеся в срок или в последний час перед сроком; фигурными скобками обозначены явления, наблюдавшиеся между сроками (за 1-3 часа до срока); квадратными скобками обозначены град или гололедные отложения с указанием их диаметра в мм.
  • Облачность - указаны через наклонную черту общая и нижняя облачность в баллах и высота нижней границы облаков в метрах; квадратными скобками обозначены формы облаков: Ci - перистые, Cs - перисто-слоистые, Cc - перисто-кучевые, Ac - высококучевые, As - высокослоистые, Sc - слоисто-кучевые, Ns - слоисто-дождевые, Cu - кучевые, Cb - кучево-дождевые. Подробнее классификацию облаков см. в Атласе облаков (PDF).
  • T - Температура воздуха - температура, измеренная на высоте 2 м над землей.
  • Td - Температура точки росы - температура, при понижении до которой содержащийся в воздухе водяной пар достигнет насыщения.
  • f - Относительная влажность воздуха - влажноcть воздуха, измеренная на высоте 2 м над землей.
  • Te - Эффективная температура - температура, которую ощущает одетый по сезону человек в тени. Характеристика душности погоды. При расчете учитывается влияние влажности воздуха и скорости ветра на теплоощущения человека.
  • Tes - Эффективная температура на солнце - температура, которую ощущает человек, с поправкой на солнечный нагрев. Характеристика знойности погоды. Зависит от высоты солнца над горизонтом, облачности и скорости ветра. Ночью, в пасмурную погоду, а также при ветре 12 м/с и более поправка равна нулю.
  • P - Атмосферное давление - приведенное к уровню моря атмосферное давление.
  • Po - Атмосферное давление - измеренное на уровне метеостанции атмосферное давление.
  • Tmin - Минимальная температура - минимум температуры воздуха на высоте 2 м над землей.
  • Tmax - Максимальная температура - максимум температуры воздуха на высоте 2 м над землей.
  • R - Количество осадков - Количество выпавших осадков за период времени, мм. При наведении курсора мыши на число - период времени, за который выпало указанное количество осадков.
  • R24 - Количество осадков - Количество выпавших осадков за 24 часа, мм.
  • S - Снежный покров - Высота снежного покрова, см. При наведении курсора мыши на число - состояние снежного покрова и степень покрытия местности в баллах.